Weather in Romanovka

Russia / Orenburg Oblast     52°12′33″N   52°56′02″E
temp.,
°C
wind,
m/s
gust,
m/s
humid.,
%
clouds,
%
prec.,
mm/h
press.,
hPa
HPBL,
m
7 march, sun
sun723:00−7nne2396100 0.1 101344
02:00−8nne4696100 0.8 1011196
05:00−10nne4793100 1.1 1011213
08:00−12n3587100 0.0 101194
11:00−12nnw358466 0.0 1013163
14:00−10wnw34840 0.0 1013220
17:00−9w35880 0.0 1014236
20:00−13sw468859 0.0 101494
8 march, mon
mon823:00−14ssw5109772 0.0 1014174
02:00−12ssw7149499 0.0 1012288
05:00−9ssw10179399 0.3 1009642
08:00−7ssw121991100 0.4 1006830
11:00−5sw121892100 0.9 1006960
14:00−3sw101591100 0.5 10071079
17:00−2sw81391100 0.8 10081049
20:00−3sw71295100 0.3 1008579
9 march, tue
tue923:00−3ssw71295100 0.8 1008653
02:00−2sw81495100 0.7 1007694
05:00−2sw81494100 1.3 1006663
08:00−2wsw71295100 0.7 1007742
11:00−5wnw6989100 0.9 1009511
14:00−5nw2380100 0.0 1009290
17:00−5nne2282100 0.0 1008272
20:00−7nnw4796100 0.6 1007275
10 march, wed
wed1023:00−8nnw5795100 2.2 1008342
02:00−11nw489792 0.3 1009183
05:00−16nw479885 0.3 1011110
08:00−18wnw479899 0.0 1012115
11:00−16wnw579697 0.0 1013241
14:00−14wnw579399 0.0 1014381
17:00−14wnw5892100 0.1 1015503
20:00−19wnw599895 0.0 1017169
11 march, thu
thu1123:00−21nw4810095 0.1 1019141
02:00−22nw4710096 0.1 1020135
05:00−23nw479998 0.1 1022145
08:00−27nw4710098 0.0 102398
11:00−25nw459781 0.0 1025167
14:00−22wnw459327 0.0 1026231
17:00−20w469113 0.0 1027257
20:00−24wsw47920 0.0 102794